Buzzards Bay, MA

8:55 PM EST on January 19, 2017 (GMT -0500)
Cape Cod Coast Guard Air Station

Weather History for KFMH - January, 2014

Change the Weather History Date:

Sunday, January 12, 2014

  Actual Average Record
Temperature  
Mean Temperature 42 °F -  
Max Temperature 50 °F 34 °F 59 °F (2017)
Min Temperature 33 °F 19 °F 10 °F (2009)
Degree Days  
Heating Degree Days 24    
Moisture  
Dew Point 33 °F    
Average Humidity 71    
Maximum Humidity 100    
Minimum Humidity 46    
Precipitation  
Precipitation 0.01 in - - ()
Sea Level Pressure  
Sea Level Pressure 29.64 in    
Wind  
Wind Speed 14 mph (West)    
Max Wind Speed 23 mph    
Max Gust Speed 34 mph    
Visibility 9 miles    
Events Fog , Rain    
Averages and records for this station are not official NWS values.
T = Trace of Precipitation, MM = Missing Value Source: NWS Daily Summary

Daily Weather History Graph

Daily Weather History Graph

Search for Another Location

Airport or City:

Trip Planner

Search our weather history database for the weather conditions in past years. The results will help you decide how hot, cold, wet, or windy it might be!

Date:

Astronomy

Jan. 12, 2014 Rise Set
Actual Time 7:07 AM EST 4:33 PM EST
Civil Twilight 6:36 AM EST 5:04 PM EST
Nautical Twilight 6:02 AM EST 5:38 PM EST
Astronomical Twilight 5:29 AM EST 6:12 PM EST
Moon 1:59 PM EST (1/12) 4:03 AM EST (1/12)
Length of Visible Light 10h 27m
Length of Day
9h 25m
Waxing Gibbous, 89% of the Moon is Illuminated
Jan 12
Waxing Gibbous
Jan 15
Full
Jan 24
Last Quarter
Jan 30
New
Feb 6
First Quarter

Hourly Weather History & Observations

Time (EST) Temp. Windchill Dew Point Humidity Pressure Visibility Wind Dir Wind Speed Gust Speed Precip Events Conditions
12:15 AM 48.2 °F - 48.2 °F 100% 29.35 in 2.5 mi South 10.4 mph - N/A   Overcast
12:35 AM 48.2 °F - 48.2 °F 100% 29.34 in 8.0 mi South 13.8 mph 19.6 mph N/A   Overcast
12:55 AM 48.2 °F - 48.2 °F 100% 29.36 in 9.0 mi South 12.7 mph - N/A   Overcast
1:15 AM 48.2 °F - 48.2 °F 100% 29.37 in 10.0 mi SSW 17.3 mph - N/A   Overcast
1:35 AM 50.0 °F - 48.2 °F 94% 29.38 in 10.0 mi WSW 10.4 mph - N/A   Overcast
1:55 AM 48.2 °F - 48.2 °F 100% 29.40 in 9.0 mi SW 17.3 mph 27.6 mph N/A   Overcast
2:15 AM 48.2 °F - 48.2 °F 100% 29.39 in 3.0 mi SW 18.4 mph 29.9 mph N/A   Overcast
2:35 AM 48.2 °F - 48.2 °F 100% 29.41 in 2.0 mi WSW 19.6 mph 26.5 mph N/A Rain Light Rain
2:55 AM 48.2 °F - 48.2 °F 100% 29.39 in 2.0 mi WSW 20.7 mph 34.5 mph N/A   Overcast
3:15 AM 48.2 °F - 48.2 °F 100% 29.39 in 4.0 mi WSW 19.6 mph 26.5 mph N/A   Overcast
3:35 AM 48.2 °F - 46.4 °F 93% 29.39 in 8.0 mi WSW 20.7 mph 26.5 mph N/A   Overcast
3:55 AM 46.4 °F 39.8 °F 46.4 °F 100% 29.38 in 2.0 mi WSW 16.1 mph 25.3 mph N/A   Overcast
4:15 AM 46.4 °F 39.2 °F 44.6 °F 93% 29.38 in 0.5 mi WSW 18.4 mph 27.6 mph N/A Fog Fog
4:35 AM 44.6 °F 37.4 °F 44.6 °F 100% 29.39 in 0.5 mi WSW 16.1 mph - N/A Fog Fog
4:55 AM 44.6 °F 38.8 °F 44.6 °F 100% 29.39 in 0.5 mi West 11.5 mph - N/A Fog Fog
5:15 AM 44.6 °F 38.4 °F 44.6 °F 100% 29.41 in 0.5 mi West 12.7 mph - N/A Fog Fog
5:35 AM 42.8 °F 38.6 °F 42.8 °F 100% 29.40 in 5.0 mi WNW 6.9 mph - N/A   Overcast
5:55 AM 44.6 °F 40.2 °F 42.8 °F 93% 29.41 in 10.0 mi NW 8.1 mph - N/A   Overcast
6:15 AM 42.8 °F 38.6 °F 41.0 °F 93% 29.41 in 10.0 mi NW 6.9 mph - N/A   Overcast
6:35 AM 41.0 °F 34.7 °F 41.0 °F 100% 29.43 in 10.0 mi WNW 10.4 mph - N/A   Overcast
6:55 AM 42.8 °F 36.2 °F 37.4 °F 81% 29.44 in 10.0 mi WNW 12.7 mph 19.6 mph N/A   Overcast
7:15 AM 41.0 °F 34.3 °F 37.4 °F 87% 29.45 in 10.0 mi WNW 11.5 mph - N/A   Scattered Clouds
7:35 AM 41.0 °F 35.2 °F 35.6 °F 81% 29.48 in 10.0 mi WNW 9.2 mph 17.3 mph N/A   Clear
7:55 AM 39.2 °F 32.5 °F 35.6 °F 87% 29.49 in 10.0 mi WNW 10.4 mph - N/A   Partly Cloudy
8:15 AM 41.0 °F 33.9 °F 35.6 °F 81% 29.50 in 10.0 mi WNW 12.7 mph - N/A   Clear
8:35 AM 42.8 °F 35.1 °F 35.6 °F 76% 29.51 in 10.0 mi WNW 16.1 mph 23.0 mph N/A   Clear
8:55 AM 42.8 °F 35.8 °F 33.8 °F 70% 29.52 in 10.0 mi NW 13.8 mph 19.6 mph N/A   Clear
9:15 AM 41.0 °F 33.1 °F 32.0 °F 70% 29.56 in 10.0 mi WNW 15.0 mph 18.4 mph N/A   Clear
9:35 AM 41.0 °F 35.2 °F 32.0 °F 70% 29.57 in 10.0 mi WNW 9.2 mph 20.7 mph N/A   Clear
9:55 AM 42.8 °F 35.4 °F 32.0 °F 66% 29.58 in 10.0 mi WNW 15.0 mph 20.7 mph N/A   Clear
10:15 AM 42.8 °F 34.8 °F 32.0 °F 66% 29.58 in 10.0 mi West 17.3 mph 24.2 mph N/A   Partly Cloudy
10:35 AM 44.6 °F 37.8 °F 32.0 °F 61% 29.59 in 10.0 mi WNW 15.0 mph 29.9 mph N/A   Mostly Cloudy
10:55 AM 44.6 °F 36.6 °F 32.0 °F 61% 29.59 in 10.0 mi WNW 19.6 mph 25.3 mph N/A   Mostly Cloudy
11:15 AM 44.6 °F 36.4 °F 30.2 °F 57% 29.60 in 10.0 mi WNW 20.7 mph 31.1 mph N/A   Mostly Cloudy
11:35 AM 44.6 °F 37.4 °F 30.2 °F 57% 29.60 in 10.0 mi WNW 16.1 mph 24.2 mph N/A   Overcast
11:55 AM 44.6 °F 36.9 °F 28.4 °F 53% 29.60 in 10.0 mi WNW 18.4 mph 29.9 mph N/A   Mostly Cloudy
12:15 PM 44.6 °F 36.1 °F 28.4 °F 53% 29.59 in 10.0 mi West 21.9 mph 33.4 mph N/A   Clear
12:35 PM 44.6 °F 37.4 °F 28.4 °F 53% 29.59 in 10.0 mi WNW 16.1 mph 25.3 mph N/A   Clear
12:55 PM 46.4 °F 38.3 °F 28.4 °F 50% 29.60 in 10.0 mi WNW 23.0 mph 28.8 mph N/A   Clear
1:15 PM 46.4 °F 39.5 °F 28.4 °F 50% 29.61 in 10.0 mi West 17.3 mph 25.3 mph N/A   Clear
1:35 PM 46.4 °F 39.0 °F 26.6 °F 46% 29.63 in 10.0 mi WNW 19.6 mph 27.6 mph N/A   Scattered Clouds
1:55 PM 46.4 °F 38.3 °F 26.6 °F 46% 29.64 in 10.0 mi WNW 23.0 mph 34.5 mph N/A   Mostly Cloudy
2:15 PM 44.6 °F 36.6 °F 26.6 °F 49% 29.65 in 10.0 mi WNW 19.6 mph 27.6 mph N/A   Overcast
2:35 PM 44.6 °F 38.1 °F 26.6 °F 49% 29.68 in 10.0 mi WNW 13.8 mph 27.6 mph N/A   Overcast
2:55 PM 44.6 °F 37.4 °F 26.6 °F 49% 29.69 in 10.0 mi WNW 16.1 mph 25.3 mph N/A   Overcast
3:15 PM 44.6 °F 37.2 °F 26.6 °F 49% 29.70 in 10.0 mi WNW 17.3 mph 23.0 mph N/A   Overcast
3:35 PM 44.6 °F 37.4 °F 26.6 °F 49% 29.72 in 10.0 mi WNW 16.1 mph 27.6 mph N/A   Overcast
3:55 PM 42.8 °F 37.0 °F 26.6 °F 53% 29.73 in 10.0 mi WNW 10.4 mph 23.0 mph N/A   Mostly Cloudy
4:15 PM 41.0 °F 33.1 °F 26.6 °F 57% 29.75 in 10.0 mi West 15.0 mph 20.7 mph N/A   Mostly Cloudy
4:35 PM 41.0 °F 32.8 °F 26.6 °F 57% 29.77 in 10.0 mi WNW 16.1 mph 20.7 mph N/A   Mostly Cloudy
4:55 PM 41.0 °F 33.5 °F 26.6 °F 57% 29.78 in 10.0 mi WNW 13.8 mph - N/A   Mostly Cloudy
5:15 PM 39.2 °F 31.2 °F 26.6 °F 61% 29.81 in 10.0 mi West 13.8 mph 19.6 mph N/A   Mostly Cloudy
5:35 PM 39.2 °F 31.2 °F 26.6 °F 61% 29.83 in 10.0 mi West 13.8 mph 24.2 mph N/A   Overcast
5:55 PM 39.2 °F 30.8 °F 24.8 °F 56% 29.84 in 10.0 mi WNW 15.0 mph 23.0 mph N/A   Mostly Cloudy
6:15 PM 39.2 °F 30.8 °F 24.8 °F 56% 29.85 in 10.0 mi West 15.0 mph 24.2 mph N/A   Mostly Cloudy
6:35 PM 39.2 °F 30.8 °F 24.8 °F 56% 29.87 in 10.0 mi West 15.0 mph 20.7 mph N/A   Mostly Cloudy
6:55 PM 39.2 °F 31.6 °F 24.8 °F 56% 29.88 in 10.0 mi WNW 12.7 mph 18.4 mph N/A   Overcast
7:15 PM 39.2 °F 33.6 °F 24.8 °F 56% 29.89 in 10.0 mi WNW 8.1 mph - N/A   Mostly Cloudy
7:35 PM 37.4 °F 30.8 °F 23.0 °F 56% 29.90 in 10.0 mi West 9.2 mph - N/A   Mostly Cloudy
7:55 PM 35.6 °F 31.7 °F 24.8 °F 65% 29.91 in 10.0 mi West 4.6 mph - N/A   Partly Cloudy
8:15 PM 35.6 °F 28.6 °F 24.8 °F 65% 29.92 in 10.0 mi WNW 9.2 mph - N/A   Scattered Clouds
8:35 PM 35.6 °F 28.6 °F 24.8 °F 65% 29.93 in 10.0 mi West 9.2 mph - N/A   Partly Cloudy
8:55 PM 35.6 °F 27.5 °F 23.0 °F 60% 29.93 in 10.0 mi West 11.5 mph - N/A   Clear
9:15 PM 35.6 °F 27.5 °F 23.0 °F 60% 29.94 in 10.0 mi WNW 11.5 mph - N/A   Clear
9:35 PM 35.6 °F 28.0 °F 23.0 °F 60% 29.95 in 10.0 mi West 10.4 mph - N/A   Clear
9:55 PM 35.6 °F 26.6 °F 23.0 °F 60% 29.96 in 10.0 mi West 13.8 mph 20.7 mph N/A   Clear
10:15 PM 35.6 °F 25.9 °F 23.0 °F 60% 29.96 in 10.0 mi West 16.1 mph - N/A   Clear
10:35 PM 35.6 °F 27.1 °F 23.0 °F 60% 29.97 in 10.0 mi West 12.7 mph - N/A   Clear
10:55 PM 35.6 °F 25.9 °F 23.0 °F 60% 29.97 in 10.0 mi West 16.1 mph 21.9 mph N/A   Clear
11:15 PM 35.6 °F 27.5 °F 23.0 °F 60% 29.98 in 10.0 mi West 11.5 mph 23.0 mph N/A   Clear
11:35 PM 33.8 °F 27.0 °F 23.0 °F 65% 29.98 in 10.0 mi West 8.1 mph - N/A   Clear
11:55 PM 33.8 °F 25.3 °F 23.0 °F 65% 29.98 in 10.0 mi West 11.5 mph - N/A   Clear